Location: Skalnate Pleso
(49.1889°N, 20.2450°E)
Time: 07:28:16
(UTC+01:00)

Cosmos 2219 Rocket - Pass Details

Date: 19 November 2019
Orbit: 827 x 848 km, 71.0° (Epoch: 15 December)

Event Time Altitude Azimuth Distance (km) Brightness Sun altitude
Exits shadow 04:25:48 10° 347° (NNW) 2,505 4.5 -24.0°
Reaches altitude 10° 04:25:56 10° 347° (NNW) 2,468 4.5 -24.0°
Maximum altitude 04:30:40 27° 44° (NE) 1,589 4.0 -23.2°
Drops below altitude 10° 04:35:24 10° 101° (E) 2,468 5.7 -22.4°
Sets 04:38:14 0° 114° (ESE) 3,402 6.6 -22.0°
